timestamp,wind_dir_avg,wind_spd_avg,wind_spd_max_dir,wind_spd_gust,battery_voltage,lat,long
2020-12-20 00:04:01+00:00,25.0,10.47,19.0,11.78,12.57,47.59359,-54.27349
2020-12-20 00:14:01+00:00,28.0,10.99,35.0,12.39,12.49,47.59359,-54.27349
2020-12-20 00:24:01+00:00,15.0,8.4,16.0,9.9,12.49,47.59359,-54.27349
2020-12-20 00:34:01+00:00,4.0,8.49,0.0,9.84,12.49,47.59359,-54.27349
2020-12-20 00:44:01+00:00,24.0,8.95,18.0,10.73,12.49,47.59359,-54.27349
2020-12-20 00:54:01+00:00,36.0,8.74,37.0,10.56,12.49,47.59359,-54.27349
2020-12-20 01:04:01+00:00,11.0,8.19,0.0,10.63,12.49,47.59359,-54.27349
2020-12-20 01:14:01+00:00,28.0,9.14,30.0,10.25,12.49,47.59359,-54.27349
2020-12-20 01:24:01+00:00,5.0,9.78,12.0,10.72,12.49,47.59359,-54.27349
2020-12-20 01:34:01+00:00,24.0,7.26,31.0,8.34,12.49,47.59359,-54.27349
2020-12-20 01:44:01+00:00,21.0,7.95,28.0,9.2,12.49,47.59359,-54.27349
2020-12-20 01:54:01+00:00,10.0,7.14,7.0,8.22,12.49,47.59359,-54.27349
2020-12-20 02:04:01+00:00,17.0,9.03,16.0,10.09,12.49,47.59359,-54.27349
2020-12-20 02:14:01+00:00,18.0,7.79,24.0,9.56,12.49,47.59359,-54.27349
2020-12-20 02:24:01+00:00,9.0,8.56,13.0,10.01,12.49,47.59359,-54.27349
2020-12-20 02:34:01+00:00,18.0,8.99,19.0,10.49,12.49,47.59359,-54.27349
2020-12-20 02:44:01+00:00,8.0,6.44,0.0,7.91,12.49,47.59359,-54.27349
2020-12-20 02:54:01+00:00,1.0,8.68,357.0,10.22,12.49,47.59359,-54.27349
2020-12-20 03:04:01+00:00,10.0,6.41,4.0,7.37,12.49,47.59359,-54.27349
2020-12-20 03:14:01+00:00,18.0,6.7,22.0,8.31,12.49,47.59359,-54.27349
2020-12-20 03:24:01+00:00,30.0,6.63,35.0,7.41,12.49,47.59359,-54.27349
2020-12-20 03:34:01+00:00,353.0,8.12,358.0,9.47,12.49,47.59359,-54.27349
2020-12-20 03:44:01+00:00,0.0,8.92,359.0,10.02,12.49,47.59359,-54.27349
2020-12-20 03:54:01+00:00,359.0,7.07,2.0,8.16,12.49,47.59359,-54.27349
2020-12-20 04:04:01+00:00,24.0,6.1,29.0,7.99,12.49,47.59359,-54.27349
2020-12-20 04:14:01+00:00,358.0,8.47,1.0,9.86,12.49,47.59359,-54.27349
2020-12-20 04:24:01+00:00,1.0,7.76,2.0,9.09,12.49,47.59359,-54.27349
2020-12-20 04:34:01+00:00,7.0,6.8,350.0,8.4,12.49,47.59359,-54.27349
2020-12-20 04:44:01+00:00,3.0,6.25,4.0,7.66,12.49,47.59359,-54.27349
2020-12-20 04:54:01+00:00,4.0,5.89,10.0,7.15,12.49,47.59359,-54.27349
2020-12-20 05:04:01+00:00,346.0,6.72,347.0,8.08,12.49,47.59359,-54.27349
2020-12-20 05:14:01+00:00,348.0,7.4,347.0,8.64,12.41,47.59359,-54.27349
2020-12-20 05:24:01+00:00,327.0,6.47,329.0,7.54,12.41,47.59359,-54.27349
2020-12-20 05:34:01+00:00,355.0,4.89,358.0,5.72,12.41,47.59359,-54.27349
2020-12-20 05:44:01+00:00,359.0,6.76,358.0,7.4,12.41,47.59359,-54.27349
2020-12-20 05:54:01+00:00,351.0,5.54,344.0,7.43,12.41,47.59359,-54.27349
2020-12-20 06:04:01+00:00,28.0,7.42,34.0,8.54,12.41,47.59359,-54.27349
2020-12-20 06:14:01+00:00,19.0,4.39,35.0,5.87,12.41,47.59359,-54.27349
2020-12-20 06:24:01+00:00,20.0,5.45,18.0,6.43,12.41,47.59359,-54.27349
2020-12-20 06:34:01+00:00,355.0,6.09,1.0,7.19,12.41,47.59359,-54.27349
2020-12-20 06:44:01+00:00,352.0,6.23,350.0,7.34,12.41,47.59359,-54.27349
2020-12-20 06:54:01+00:00,348.0,4.01,357.0,6.3,12.41,47.59359,-54.27349
2020-12-20 07:04:01+00:00,326.0,5.61,325.0,6.87,12.41,47.59359,-54.27349
2020-12-20 07:14:01+00:00,351.0,5.25,355.0,6.77,12.41,47.59359,-54.27349
2020-12-20 07:24:01+00:00,5.0,4.3,355.0,5.77,12.41,47.59359,-54.27349
2020-12-20 07:34:01+00:00,329.0,5.62,334.0,6.7,12.41,47.59359,-54.27349
2020-12-20 07:44:01+00:00,335.0,4.36,324.0,5.13,12.41,47.59359,-54.27349
2020-12-20 07:54:01+00:00,14.0,4.87,14.0,5.71,12.41,47.59359,-54.27349
2020-12-20 08:04:01+00:00,352.0,4.29,0.0,5.41,12.41,47.59359,-54.27349
2020-12-20 08:14:01+00:00,358.0,5.06,359.0,6.42,12.41,47.59359,-54.27349
2020-12-20 08:24:01+00:00,347.0,4.72,343.0,6.25,12.41,47.59359,-54.27349
2020-12-20 08:34:01+00:00,24.0,3.67,18.0,4.46,12.41,47.59359,-54.27349
2020-12-20 08:44:01+00:00,342.0,4.06,322.0,4.98,12.41,47.59359,-54.27349
2020-12-20 08:54:01+00:00,333.0,5.29,332.0,6.78,12.41,47.59359,-54.27349
2020-12-20 09:04:01+00:00,341.0,5.82,331.0,7.32,12.41,47.59359,-54.27349
2020-12-20 09:14:01+00:00,328.0,6.03,335.0,7.19,12.41,47.59359,-54.27349
2020-12-20 09:24:01+00:00,325.0,5.18,334.0,6.54,12.41,47.59359,-54.27349
2020-12-20 09:34:01+00:00,354.0,2.6,351.0,3.64,12.41,47.59359,-54.27349
2020-12-20 09:44:01+00:00,344.0,4.25,348.0,5.53,12.41,47.59359,-54.27349
2020-12-20 09:54:01+00:00,318.0,4.44,305.0,6.11,12.41,47.59359,-54.27349
2020-12-20 10:04:01+00:00,311.0,5.64,312.0,6.87,12.41,47.59359,-54.27349
2020-12-20 10:14:01+00:00,306.0,3.61,306.0,5.02,12.33,47.59359,-54.27349
2020-12-20 10:24:01+00:00,354.0,3.54,3.0,4.6,12.33,47.59359,-54.27349
2020-12-20 10:34:01+00:00,320.0,5.72,318.0,7.0,12.33,47.59359,-54.27349
2020-12-20 10:44:01+00:00,308.0,5.82,306.0,7.4,12.33,47.59359,-54.27349
2020-12-20 10:54:01+00:00,341.0,4.91,321.0,7.36,12.33,47.59359,-54.27349
2020-12-20 11:04:01+00:00,351.0,3.86,351.0,5.09,12.33,47.59359,-54.27349
2020-12-20 11:14:01+00:00,314.0,3.62,300.0,5.39,12.33,47.59359,-54.27349
2020-12-20 11:24:01+00:00,301.0,4.46,301.0,5.0,12.33,47.59359,-54.27349
2020-12-20 11:34:01+00:00,297.0,2.67,282.0,4.43,12.33,47.59359,-54.27349
2020-12-20 11:44:01+00:00,314.0,4.18,306.0,5.16,12.33,47.59359,-54.27349
2020-12-20 11:54:01+00:00,311.0,4.97,307.0,6.18,12.33,47.59359,-54.27349
2020-12-20 12:04:01+00:00,311.0,3.51,302.0,5.73,12.33,47.59359,-54.27349
2020-12-20 12:14:01+00:00,317.0,5.55,309.0,7.42,12.33,47.59359,-54.27349
2020-12-20 12:24:01+00:00,314.0,5.98,312.0,7.02,12.33,47.59359,-54.27349
2020-12-20 12:34:01+00:00,338.0,4.37,330.0,6.07,12.33,47.59359,-54.27349
2020-12-20 12:44:01+00:00,314.0,5.43,316.0,6.48,12.33,47.59359,-54.27349
2020-12-20 12:54:01+00:00,308.0,4.34,303.0,5.92,12.33,47.59359,-54.27349
2020-12-20 13:04:01+00:00,296.0,3.18,285.0,4.04,12.33,47.59359,-54.27349
2020-12-20 14:14:01+00:00,312.0,1.4,317.0,2.22,13.76,47.59359,-54.27349
2020-12-20 14:24:01+00:00,312.0,1.86,316.0,2.49,13.76,47.59359,-54.27349
2020-12-20 14:34:01+00:00,319.0,1.38,331.0,1.73,13.76,47.59359,-54.27349
2020-12-20 14:44:01+00:00,213.0,2.27,213.0,3.25,13.76,47.59359,-54.27349
2020-12-20 14:54:01+00:00,289.0,1.47,296.0,2.09,13.76,47.59359,-54.27349
2020-12-20 15:04:01+00:00,243.0,1.29,236.0,1.94,13.76,47.59359,-54.27349
2020-12-20 15:14:01+00:00,224.0,0.9,218.0,1.81,13.76,47.59359,-54.27349
2020-12-20 15:24:01+00:00,281.0,0.88,270.0,1.32,13.76,47.59359,-54.27349
2020-12-20 15:34:01+00:00,337.0,0.48,344.0,0.83,13.76,47.59359,-54.27349
2020-12-20 15:44:01+00:00,215.0,1.34,222.0,2.03,13.76,47.59359,-54.27349
2020-12-20 15:54:01+00:00,175.0,0.7,179.0,0.99,13.76,47.59359,-54.27349
2020-12-20 16:04:01+00:00,190.0,0.99,192.0,1.45,13.76,47.59359,-54.27349
2020-12-20 16:14:01+00:00,192.0,0.8,189.0,1.07,13.76,47.59359,-54.27349
2020-12-20 16:24:01+00:00,207.0,2.11,198.0,2.71,13.76,47.59359,-54.27349
2020-12-20 16:34:01+00:00,214.0,2.42,213.0,3.17,13.76,47.59359,-54.27349
2020-12-20 16:44:01+00:00,203.0,3.06,213.0,3.7,13.76,47.59359,-54.27349
2020-12-20 16:54:01+00:00,219.0,3.29,226.0,3.84,13.76,47.59359,-54.27349
2020-12-20 17:04:01+00:00,219.0,3.3,213.0,4.63,13.76,47.59359,-54.27349
2020-12-20 17:14:01+00:00,228.0,1.95,213.0,2.5,13.84,47.59359,-54.27349
2020-12-20 17:24:01+00:00,243.0,2.43,239.0,3.23,13.84,47.59359,-54.27349
2020-12-20 17:34:01+00:00,236.0,2.56,238.0,3.64,13.84,47.59359,-54.27349
2020-12-20 17:44:01+00:00,232.0,2.71,234.0,3.29,13.84,47.59359,-54.27349
2020-12-20 17:54:01+00:00,281.0,1.02,281.0,1.48,13.84,47.59359,-54.27349
2020-12-20 18:04:01+00:00,314.0,4.48,310.0,5.83,13.84,47.59359,-54.27349
2020-12-20 18:14:01+00:00,317.0,3.58,308.0,4.88,14.32,47.59359,-54.27349
2020-12-20 18:24:01+00:00,320.0,3.79,321.0,4.77,14.32,47.59359,-54.27349
2020-12-20 18:34:01+00:00,325.0,4.11,330.0,4.85,14.32,47.59359,-54.27349
2020-12-20 18:44:01+00:00,292.0,3.87,292.0,4.65,14.32,47.59359,-54.27349
2020-12-20 18:54:01+00:00,314.0,3.87,307.0,5.19,14.32,47.59359,-54.27349
2020-12-20 19:04:01+00:00,324.0,3.44,323.0,3.83,14.32,47.59359,-54.27349
2020-12-20 19:14:01+00:00,315.0,2.66,309.0,3.36,13.68,47.59359,-54.27349
2020-12-20 19:24:01+00:00,302.0,2.91,300.0,3.78,13.68,47.59359,-54.27349
2020-12-20 19:34:01+00:00,289.0,3.74,290.0,5.25,13.68,47.59359,-54.27349
2020-12-20 19:44:01+00:00,287.0,3.57,303.0,4.42,13.68,47.59359,-54.27349
2020-12-20 19:54:01+00:00,296.0,3.99,306.0,4.62,13.68,47.59359,-54.27349
2020-12-20 20:04:01+00:00,311.0,4.2,318.0,4.74,13.68,47.59359,-54.27349
2020-12-20 20:14:01+00:00,309.0,3.61,309.0,4.0,12.81,47.59359,-54.27349
2020-12-20 20:24:01+00:00,304.0,3.91,321.0,5.33,12.81,47.59359,-54.27349
2020-12-20 20:34:01+00:00,331.0,4.13,332.0,4.62,12.81,47.59359,-54.27349
2020-12-20 20:44:01+00:00,308.0,3.35,308.0,3.92,12.81,47.59359,-54.27349
2020-12-20 20:54:01+00:00,318.0,3.68,321.0,4.86,12.81,47.59359,-54.27349
2020-12-20 21:04:01+00:00,302.0,3.21,312.0,4.08,12.81,47.59359,-54.27349
2020-12-20 21:14:01+00:00,311.0,3.25,301.0,4.16,12.65,47.59359,-54.27349
2020-12-20 21:24:01+00:00,307.0,2.66,311.0,3.37,12.65,47.59359,-54.27349
2020-12-20 21:34:01+00:00,304.0,3.2,304.0,3.73,12.65,47.59359,-54.27349
2020-12-20 21:44:01+00:00,318.0,2.63,314.0,3.31,12.65,47.59359,-54.27349
2020-12-20 21:54:01+00:00,331.0,2.55,323.0,3.12,12.65,47.59359,-54.27349
2020-12-20 22:04:01+00:00,332.0,2.49,333.0,3.11,12.65,47.59359,-54.27349
2020-12-20 22:14:01+00:00,351.0,2.8,349.0,3.73,12.65,47.59359,-54.27349
2020-12-20 22:24:01+00:00,347.0,2.49,347.0,3.18,12.65,47.59359,-54.27349
2020-12-20 22:34:01+00:00,346.0,2.92,343.0,4.19,12.65,47.59359,-54.27349
2020-12-20 22:44:01+00:00,348.0,2.82,347.0,3.38,12.65,47.59359,-54.27349
2020-12-20 22:54:01+00:00,342.0,3.21,351.0,4.41,12.65,47.59359,-54.27349
2020-12-20 23:04:01+00:00,344.0,3.96,348.0,4.65,12.65,47.59359,-54.27349
2020-12-20 23:14:01+00:00,349.0,3.67,0.0,4.21,12.57,47.59359,-54.27349
2020-12-20 23:24:01+00:00,353.0,3.74,346.0,4.5,12.57,47.59359,-54.27349
2020-12-20 23:34:01+00:00,339.0,2.89,326.0,4.09,12.57,47.59359,-54.27349
2020-12-20 23:44:01+00:00,353.0,2.9,344.0,3.7,12.57,47.59359,-54.27349
2020-12-20 23:54:01+00:00,335.0,3.07,332.0,3.87,12.57,47.59359,-54.27349
